Location: Newark
(44.2886°N, 4.8431°E)
Time: 17:00:27
(UTC+00:00)

N. Korean satellite - Visible Passes

Search period start: 30 September 2020 00:00
Search period end: 10 October 2020 00:00
Orbit: 455 x 503 km, 97.2° (Epoch: 29 September)

Date Brightness Start Highest point End Pass type
(mag) Time Alt. Az. Time Alt. Az. Time Alt. Az.
30 Sep 8.7 04:44:19 10° NNE 04:47:34 31° E 04:50:44 10° SSE visible
01 Oct 9.8 04:19:09 10° NE 04:21:20 15° E 04:23:30 10° SE visible
03 Oct 7.7 04:59:19 10° NNE 05:02:48 48° E 05:06:13 10° S visible
04 Oct 9.3 04:33:45 10° NE 04:36:38 23° E 04:39:28 10° SSE visible
05 Oct 10.2 04:09:11 10° ENE 04:10:21 11° E 04:11:30 10° ESE visible
06 Oct 6.7 05:14:24 10° NNE 05:17:58 78° ESE 05:21:27 10° S visible
07 Oct 8.4 04:48:33 10° NNE 04:51:50 34° E 04:55:02 10° SSE visible
08 Oct 9.8 04:23:13 10° NE 04:25:36 17° E 04:27:56 10° SE visible
09 Oct 10.8 17:42:01 10° WSW 17:42:56 11° W 17:43:51 10° WNW visible
